STARLINK-33921, 65934

Orbit data source: Space-Track

STARLINK-33921, 65934 is a payload satellite owned by SpaceX/Seattle (US) in LEO that was launched on Wed, 08 Oct 2025 UTC via an FALCON 9 launch vehicle from the Air Force Western Test Range (AFWTR). Payload-class satellites include a variety of spacecraft equipped with specific instruments for various scientific and technological missions. These include communications satellites like Starlink; space stations such as the ISS; scientific satellites like the Hubble; Earth observation satellites from companies like Planet Labs, Umbra, and HawkEye 360; GPS; miniature CubeSats for education and research; and military/defense satellites.

Loading next visibility...
Identifier
65934, 2025-225AA
Orbit
LEO
Country
Flag of USUS
Related business
Manufacturer
SpaceX/Seattle
Mission
Operational Commercial Communications
Bus & Motor
STARLINK V2MO, Unknown motor
Mass
575 kg wet, ~530 kg dry
Launch date (UTC)
2025-10-08 (8 months ago)
Launch vehicle
FALCON 9
Launch site
Air Force Western Test Range (AFWTR)
Object type
Payload
Rocket body
Debris
Shape & HBR
Box + 2 Pan, 17.7 m
Radar Cross Section
36.964 m², Large (>1 m²)

Expand to show TLE details & history
Last TLE update: 14 hours ago

TLE from 14 hours ago
0 STARLINK-33921
1 65934U 25225AA  26151.20406523  .00018711  00000-0  64223-3 0  9998
2 65934  53.1565 142.2472 0001222  76.7924 283.3213 15.30201593 36154
Epoch: 2026-05-31T04:53Z
TLE epoch observation values (Epoch: 2026-05-31T04:53:51.235Z)
Latitude
-0.00004°
Longitude
-179.92541°
Altitude
475.917 km
Speed
7.629 km/s
True Right ascension
09h 28m 59s
True Declination
0° 00' 00"
Sunlit
Object was in daylight at epoch
Visualization orbit readout
Latitude
Unknown
Longitude
Unknown
Altitude
Unknown
Speed
Unknown
Apparent Right ascension
Unknown
Apparent Declination
Unknown
Sunlit
N/A
Visualization observer readout
Local Sidereal Time
04:59:54
Azimuth
Unknown
Elevation
Unknown
Doppler factor
Unknown
Orbital elements
Apogee altitude
476.305 km
Perigee altitude
474.63 km
Semi-major axis
6,853.604 km
Eccentricity
0.00012
Inclination
53.1565°
RAAN
142.2472°
Arg. of periapsis
76.7924°
True anomaly
283.30767°
Mean anomaly
283.3213°
Eccentric anomaly
283.31449°
Mean motion
3.82529 °/min
Orbital period
94.11 mins
BSTAR
0.00064223
Loading maneuver chart data...
Computing Atmospheric mass density...
Loading historical data...
Loading historical data...
Loading historical data...
Loading historical data...
Loading historical data...
Loading historical data...
Loading historical data...

Documentation

Showing up to 5 results
|